Time,TemperatureF,DewpointF,PressureIn,WindDirection,WindDirectionDegrees,WindSpeedMPH,WindSpeedGustMPH,Humidity,HourlyPrecipIn,Conditions,Clouds,dailyrainin,SoftwareType,DateUTC
2012-02-02 00:02:00,39.2,29.0,30.05,NE,43,4.0,6.0,67,0.00,,,0.00,weatherlink.com 1.10,2012-02-02 08:02:00,
2012-02-02 00:17:00,39.4,28.0,30.06,NNE,19,3.0,7.0,63,0.00,,,0.00,weatherlink.com 1.10,2012-02-02 08:17:00,
2012-02-02 00:32:00,39.7,27.0,30.06,West,271,0.0,3.0,61,0.00,,,0.00,weatherlink.com 1.10,2012-02-02 08:32:00,
2012-02-02 00:47:00,38.9,25.0,30.06,North,1,1.0,4.0,57,0.00,,,0.00,weatherlink.com 1.10,2012-02-02 08:47:00,
2012-02-02 01:02:00,38.9,25.0,30.05,NE,44,1.0,4.0,59,0.00,,,0.00,weatherlink.com 1.10,2012-02-02 09:02:00,
2012-02-02 01:17:00,38.7,25.0,30.05,North,359,2.0,3.0,59,0.00,,,0.00,weatherlink.com 1.10,2012-02-02 09:17:00,
2012-02-02 01:32:00,38.6,23.0,30.05,NNE,13,0.0,2.0,53,0.00,,,0.00,weatherlink.com 1.10,2012-02-02 09:32:00,
2012-02-02 01:47:00,39.6,20.0,30.04,NE,44,0.0,3.0,46,0.00,,,0.00,weatherlink.com 1.10,2012-02-02 09:47:00,
2012-02-02 02:02:00,40.8,17.0,30.05,NNE,15,0.0,3.0,39,0.00,,,0.00,weatherlink.com 1.10,2012-02-02 10:02:00,
2012-02-02 02:17:00,40.4,20.0,30.04,North,360,0.0,2.0,44,0.00,,,0.00,weatherlink.com 1.10,2012-02-02 10:17:00,
2012-02-02 02:32:00,38.8,21.0,30.05,North,4,1.0,3.0,49,0.00,,,0.00,weatherlink.com 1.10,2012-02-02 10:32:00,
2012-02-02 02:47:00,38.9,23.0,30.04,NNE,14,0.0,3.0,53,0.00,,,0.00,weatherlink.com 1.10,2012-02-02 10:47:00,
2012-02-02 03:02:00,37.3,21.0,30.04,NNE,14,0.0,5.0,51,0.00,,,0.00,weatherlink.com 1.10,2012-02-02 11:02:00,
2012-02-02 03:17:00,37.1,21.0,30.04,NNE,16,0.0,3.0,53,0.00,,,0.00,weatherlink.com 1.10,2012-02-02 11:17:00,
2012-02-02 03:32:00,35.3,20.0,30.04,NE,39,1.0,3.0,55,0.00,,,0.00,weatherlink.com 1.10,2012-02-02 11:32:00,
2012-02-02 03:47:00,36.2,18.0,30.04,NNE,22,2.0,4.0,48,0.00,,,0.00,weatherlink.com 1.10,2012-02-02 11:47:00,
2012-02-02 04:02:00,40.8,14.0,30.04,NNW,345,2.0,4.0,34,0.00,,,0.00,weatherlink.com 1.10,2012-02-02 12:02:00,
2012-02-02 04:17:00,42.7,12.0,30.04,WSW,240,0.0,3.0,29,0.00,,,0.00,weatherlink.com 1.10,2012-02-02 12:17:00,
2012-02-02 04:32:00,39.5,16.0,30.04,NNE,22,0.0,3.0,39,0.00,,,0.00,weatherlink.com 1.10,2012-02-02 12:32:00,
2012-02-02 04:47:00,37.9,15.0,30.05,NNE,16,2.0,4.0,39,0.00,,,0.00,weatherlink.com 1.10,2012-02-02 12:47:00,
2012-02-02 05:02:00,37.9,15.0,30.04,NNE,14,3.0,3.0,39,0.00,,,0.00,weatherlink.com 1.10,2012-02-02 13:02:00,
2012-02-02 05:17:00,36.2,16.0,30.04,NNE,22,2.0,3.0,43,0.00,,,0.00,weatherlink.com 1.10,2012-02-02 13:17:00,
2012-02-02 05:32:00,37.4,17.0,30.04,NNE,27,3.0,4.0,43,0.00,,,0.00,weatherlink.com 1.10,2012-02-02 13:32:00,
2012-02-02 05:47:00,36.9,15.0,30.04,NNE,16,4.0,6.0,41,0.00,,,0.00,weatherlink.com 1.10,2012-02-02 13:47:00,
2012-02-02 06:02:00,35.6,15.0,30.04,NNW,348,3.0,4.0,43,0.00,,,0.00,weatherlink.com 1.10,2012-02-02 14:02:00,
2012-02-02 06:17:00,36.6,15.0,30.04,NNE,26,2.0,5.0,42,0.00,,,0.00,weatherlink.com 1.10,2012-02-02 14:17:00,
2012-02-02 06:32:00,35.5,15.0,30.05,North,10,4.0,6.0,44,0.00,,,0.00,weatherlink.com 1.10,2012-02-02 14:32:00,
2012-02-02 06:47:00,35.4,16.0,30.05,NNE,26,1.0,5.0,46,0.00,,,0.00,weatherlink.com 1.10,2012-02-02 14:47:00,
2012-02-02 07:02:00,35.4,16.0,30.06,NNE,18,2.0,4.0,45,0.00,,,0.00,weatherlink.com 1.10,2012-02-02 15:02:00,
2012-02-02 07:17:00,37.3,16.0,30.05,North,6,2.0,5.0,42,0.00,,,0.00,weatherlink.com 1.10,2012-02-02 15:17:00,
2012-02-02 07:32:00,38.5,17.0,30.05,NNE,31,1.0,4.0,41,0.00,,,0.00,weatherlink.com 1.10,2012-02-02 15:32:00,
2012-02-02 07:47:00,42.6,14.0,30.05,NNE,15,0.0,4.0,32,0.00,,,0.00,weatherlink.com 1.10,2012-02-02 15:47:00,
2012-02-02 08:02:00,43.2,18.0,30.05,NE,53,2.0,2.0,37,0.00,,,0.00,weatherlink.com 1.10,2012-02-02 16:02:00,
2012-02-02 08:17:00,44.2,22.0,30.05,NNE,20,0.0,1.0,41,0.00,,,0.00,weatherlink.com 1.10,2012-02-02 16:17:00,
2012-02-02 08:32:00,46.1,18.0,30.05,ENE,70,1.0,4.0,33,0.00,,,0.00,weatherlink.com 1.10,2012-02-02 16:32:00,
2012-02-02 08:47:00,48.3,16.0,30.05,SW,214,0.0,3.0,28,0.00,,,0.00,weatherlink.com 1.10,2012-02-02 16:47:00,
2012-02-02 09:02:00,48.5,19.0,30.05,SW,224,1.0,3.0,31,0.00,,,0.00,weatherlink.com 1.10,2012-02-02 17:02:00,
2012-02-02 09:17:00,48.6,20.0,30.04,SW,222,2.0,5.0,32,0.00,,,0.00,weatherlink.com 1.10,2012-02-02 17:17:00,
2012-02-02 09:32:00,49.4,20.0,30.04,SE,134,0.0,2.0,31,0.00,,,0.00,weatherlink.com 1.10,2012-02-02 17:32:00,
2012-02-02 09:48:00,49.8,19.0,30.04,West,281,0.0,4.0,29,0.00,,,0.00,weatherlink.com 1.10,2012-02-02 17:48:00,
2012-02-02 10:03:00,50.5,24.0,30.05,SSW,212,2.0,3.0,35,0.00,,,0.00,weatherlink.com 1.10,2012-02-02 18:03:00,
2012-02-02 10:18:00,50.5,22.0,30.04,WNW,300,2.0,3.0,33,0.00,,,0.00,weatherlink.com 1.10,2012-02-02 18:18:00,
2012-02-02 10:33:00,50.7,23.0,30.04,WSW,253,0.0,2.0,34,0.00,,,0.00,weatherlink.com 1.10,2012-02-02 18:33:00,
2012-02-02 10:48:00,51.7,25.0,30.03,WSW,249,0.0,7.0,36,0.00,,,0.00,weatherlink.com 1.10,2012-02-02 18:48:00,
2012-02-02 11:18:00,52.5,24.0,30.03,SW,230,3.0,5.0,33,0.00,,,0.00,weatherlink.com 1.10,2012-02-02 19:18:00,
2012-02-02 11:48:00,52.8,28.0,30.02,SW,221,2.0,4.0,39,0.00,,,0.00,weatherlink.com 1.10,2012-02-02 19:48:00,
2012-02-02 12:03:00,53.8,27.0,30.01,SW,218,1.0,3.0,36,0.00,,,0.00,weatherlink.com 1.10,2012-02-02 20:03:00,
2012-02-02 12:18:00,54.3,25.0,30.00,SW,233,1.0,2.0,32,0.00,,,0.00,weatherlink.com 1.10,2012-02-02 20:18:00,
2012-02-02 12:33:00,54.3,23.0,30.00,SW,217,2.0,7.0,30,0.00,,,0.00,weatherlink.com 1.10,2012-02-02 20:33:00,
2012-02-02 12:48:00,54.3,23.0,29.99,WSW,238,1.0,5.0,30,0.00,,,0.00,weatherlink.com 1.10,2012-02-02 20:48:00,
2012-02-02 13:03:00,54.8,24.0,29.99,SSW,210,3.0,5.0,30,0.00,,,0.00,weatherlink.com 1.10,2012-02-02 21:03:00,
2012-02-02 13:18:00,55.1,24.0,29.98,WSW,242,2.0,5.0,30,0.00,,,0.00,weatherlink.com 1.10,2012-02-02 21:18:00,
2012-02-02 13:33:00,54.5,23.0,29.98,NNE,30,1.0,7.0,29,0.00,,,0.00,weatherlink.com 1.10,2012-02-02 21:33:00,
2012-02-02 13:48:00,55.3,23.0,29.97,WNW,302,0.0,4.0,29,0.00,,,0.00,weatherlink.com 1.10,2012-02-02 21:48:00,
2012-02-02 14:03:00,55.1,21.0,29.97,SSE,150,1.0,5.0,26,0.00,,,0.00,weatherlink.com 1.10,2012-02-02 22:03:00,
2012-02-02 14:18:00,55.0,20.0,29.97,SW,224,0.0,10.0,26,0.00,,,0.00,weatherlink.com 1.10,2012-02-02 22:18:00,
2012-02-02 14:33:00,55.2,19.0,29.97,SW,235,0.0,3.0,24,0.00,,,0.00,weatherlink.com 1.10,2012-02-02 22:33:00,
2012-02-02 14:48:00,55.7,21.0,29.97,WNW,284,1.0,3.0,26,0.00,,,0.00,weatherlink.com 1.10,2012-02-02 22:48:00,
2012-02-02 15:03:00,54.2,18.0,29.97,SSW,203,5.0,10.0,24,0.00,,,0.00,weatherlink.com 1.10,2012-02-02 23:03:00,
2012-02-02 15:18:00,54.5,18.0,29.97,SSW,212,3.0,5.0,24,0.00,,,0.00,weatherlink.com 1.10,2012-02-02 23:18:00,
2012-02-02 15:34:00,55.1,19.0,29.97,SW,214,0.0,5.0,24,0.00,,,0.00,weatherlink.com 1.10,2012-02-02 23:34:00,
2012-02-02 15:49:00,54.3,18.0,29.96,ENE,78,0.0,2.0,24,0.00,,,0.00,weatherlink.com 1.10,2012-02-02 23:49:00,
2012-02-02 16:04:00,53.7,19.0,29.97,SW,226,0.0,2.0,26,0.00,,,0.00,weatherlink.com 1.10,2012-02-03 00:04:00,
2012-02-02 16:19:00,53.2,17.0,29.97,SW,214,2.0,3.0,24,0.00,,,0.00,weatherlink.com 1.10,2012-02-03 00:19:00,
2012-02-02 16:34:00,51.7,18.0,29.97,WSW,250,0.0,1.0,26,0.00,,,0.00,weatherlink.com 1.10,2012-02-03 00:34:00,
2012-02-02 16:49:00,50.6,18.0,29.97,WSW,239,0.0,1.0,28,0.00,,,0.00,weatherlink.com 1.10,2012-02-03 00:49:00,
2012-02-02 17:04:00,48.1,19.0,29.97,WSW,238,0.0,1.0,31,0.00,,,0.00,weatherlink.com 1.10,2012-02-03 01:04:00,
2012-02-02 17:19:00,45.9,20.0,29.97,North,9,1.0,2.0,35,0.00,,,0.00,weatherlink.com 1.10,2012-02-03 01:19:00,
2012-02-02 17:34:00,42.6,20.0,29.98,NNE,22,1.0,2.0,40,0.00,,,0.00,weatherlink.com 1.10,2012-02-03 01:34:00,
2012-02-02 17:49:00,41.6,19.0,29.98,North,360,1.0,2.0,40,0.00,,,0.00,weatherlink.com 1.10,2012-02-03 01:49:00,
2012-02-02 18:04:00,40.1,19.0,29.98,North,11,1.0,1.0,43,0.00,,,0.00,weatherlink.com 1.10,2012-02-03 02:04:00,
2012-02-02 18:19:00,41.7,18.0,29.99,NE,51,2.0,4.0,39,0.00,,,0.00,weatherlink.com 1.10,2012-02-03 02:19:00,
2012-02-02 18:34:00,41.2,19.0,30.00,NNE,33,0.0,1.0,41,0.00,,,0.00,weatherlink.com 1.10,2012-02-03 02:34:00,
2012-02-02 18:49:00,41.5,18.0,30.00,NNE,33,1.0,3.0,39,0.00,,,0.00,weatherlink.com 1.10,2012-02-03 02:49:00,
2012-02-02 19:04:00,42.9,17.0,30.00,NNE,20,1.0,4.0,36,0.00,,,0.00,weatherlink.com 1.10,2012-02-03 03:04:00,
2012-02-02 19:19:00,41.2,18.0,30.00,NNE,30,0.0,2.0,39,0.00,,,0.00,weatherlink.com 1.10,2012-02-03 03:19:00,
2012-02-02 19:49:00,39.8,18.0,30.01,NNE,25,2.0,2.0,41,0.00,,,0.00,weatherlink.com 1.10,2012-02-03 03:49:00,
2012-02-02 20:04:00,38.2,17.0,30.01,NNE,33,1.0,1.0,43,0.00,,,0.00,weatherlink.com 1.10,2012-02-03 04:04:00,
2012-02-02 20:19:00,38.0,18.0,30.02,NE,35,1.0,2.0,44,0.00,,,0.00,weatherlink.com 1.10,2012-02-03 04:19:00,
2012-02-02 20:35:00,36.6,17.0,30.02,NE,39,0.0,2.0,45,0.00,,,0.00,weatherlink.com 1.10,2012-02-03 04:35:00,
2012-02-02 20:49:00,36.6,18.0,30.02,NE,35,0.0,3.0,47,0.00,,,0.00,weatherlink.com 1.10,2012-02-03 04:49:00,
2012-02-02 21:04:00,36.9,17.0,30.02,NNE,18,1.0,3.0,45,0.00,,,0.00,weatherlink.com 1.10,2012-02-03 05:04:00,
2012-02-02 21:19:00,38.7,17.0,30.02,NNE,15,4.0,4.0,41,0.00,,,0.00,weatherlink.com 1.10,2012-02-03 05:19:00,
2012-02-02 21:34:00,41.1,16.0,30.03,NNE,26,4.0,5.0,36,0.00,,,0.00,weatherlink.com 1.10,2012-02-03 05:34:00,
2012-02-02 21:49:00,41.0,16.0,30.03,North,9,2.0,6.0,36,0.00,,,0.00,weatherlink.com 1.10,2012-02-03 05:49:00,
2012-02-02 22:04:00,39.3,16.0,30.03,NNE,18,2.0,3.0,39,0.00,,,0.00,weatherlink.com 1.10,2012-02-03 06:04:00,
2012-02-02 22:19:00,38.9,16.0,30.03,NNE,18,1.0,3.0,39,0.00,,,0.00,weatherlink.com 1.10,2012-02-03 06:19:00,
2012-02-02 22:34:00,39.6,16.0,30.03,North,6,2.0,4.0,38,0.00,,,0.00,weatherlink.com 1.10,2012-02-03 06:34:00,
2012-02-02 22:49:00,39.8,15.0,30.04,NNE,16,3.0,5.0,37,0.00,,,0.00,weatherlink.com 1.10,2012-02-03 06:49:00,
2012-02-02 23:04:00,39.9,15.0,30.03,NNE,29,5.0,5.0,36,0.00,,,0.00,weatherlink.com 1.10,2012-02-03 07:04:00,
2012-02-02 23:19:00,39.9,15.0,30.03,NNE,25,4.0,4.0,36,0.00,,,0.00,weatherlink.com 1.10,2012-02-03 07:19:00,
2012-02-02 23:34:00,40.0,14.0,30.02,NNE,26,3.0,5.0,35,0.00,,,0.00,weatherlink.com 1.10,2012-02-03 07:34:00,
2012-02-02 23:49:00,39.0,15.0,30.03,NE,47,0.0,3.0,37,0.00,,,0.00,weatherlink.com 1.10,2012-02-03 07:49:00,